Location: Montreal
(45.5000°N, 73.5833°W)
Time: 00:46:59
(UTC-05:00)

Vanguard 1 - Pass Details

Date: 22 October 2017
Orbit: 650 x 3834 km, 34.2° (Epoch: 17 November)

Event Time Altitude Azimuth Distance (km) Brightness Sun altitude
Rises 08:57:42 0° 278° (W) 7,775 14.1 14.6°
Reaches altitude 10° 09:07:16 10° 258° (WSW) 6,936 14.0 16.0°
Maximum altitude 09:16:39 14° 234° (SW) 6,476 14.1 17.3°
Drops below altitude 10° 09:25:37 10° 209° (SSW) 6,486 14.4 18.6°
Sets 09:34:07 0° 188° (S) 6,942 14.9 19.7°
